Location: Greenwich
(51.4790°N, 0.0090°E)
Time: 17:33:36
(UTC+01:00)

Courier 1B Rocket - All Passes

Search period start: 23 April 2024 00:00
Search period end: 03 May 2024 00:00
Orbit: 920 x 1201 km, 28.2° (Epoch: 22 April)

Date Brightness Start Highest point End Pass type
(mag) Time Alt. Az. Time Alt. Az. Time Alt. Az.
25 Apr - 05:18:43 10° SSW 05:20:05 11° S 05:21:27 10° S daylight
26 Apr - 04:17:42 10° S 04:19:19 11° S 04:20:55 10° SSE visible
27 Apr - 03:17:54 10° S 03:18:32 10° S 03:19:10 10° SSE visible
27 Apr - 05:09:29 10° SSW 05:10:29 10° S 05:11:29 10° S daylight
28 Apr - 04:07:42 10° SSW 04:09:42 11° S 04:11:42 10° SSE visible
29 Apr - 03:06:53 10° SSW 03:08:55 11° S 03:10:56 10° SSE visible
30 Apr - 02:07:03 10° S 02:08:07 10° S 02:09:11 10° SSE visible
30 Apr - 03:58:30 10° SSW 04:00:05 11° S 04:01:38 10° S visible
01 May - 02:57:06 10° SSW 02:59:17 11° S 03:01:28 10° SSE visible
02 May - 01:56:28 10° SSW 01:58:29 11° S 02:00:30 10° SSE visible
